N894A SAZN-SABE

Flight info

Callsign N894A
Flight time 1h 30m
Altitude 35000
Route OSEK1C OSEKO UZ127 OSA UW73 IRASU UW68 BODIR ASADA DCT
Aircraft LJ35/L-SG/S

Departure

Time 2026-05-04 23:38
Airport Presidente Perón International Airport (SAZN)

Arrival

Time 2026-05-05 01:08
Airport Aeroparque Jorge Newbery (SABE)
Time Latitude Longitude Altitude Speed Heading
2026-05-04 23:20 -38.95143 -68.13932 898 ft 0 kts 270°
2026-05-04 23:33 -38.95142 -68.13938 898 ft 2 kts 277°
2026-05-04 23:33 -38.95099 -68.13963 898 ft 13 kts 343°
2026-05-04 23:34 -38.95011 -68.14027 898 ft 4 kts 315°
2026-05-04 23:34 -38.95011 -68.14028 898 ft 0 kts 315°
2026-05-04 23:36 -38.94997 -68.14045 898 ft 10 kts 315°
2026-05-04 23:36 -38.94916 -68.14119 900 ft 10 kts 350°
2026-05-04 23:36 -38.94902 -68.14137 900 ft 0 kts 269°
2026-05-04 23:37 -38.94902 -68.14264 899 ft 50 kts 270°
2026-05-04 23:37 -38.94901 -68.15092 896 ft 130 kts 270°
2026-05-04 23:37 -38.94881 -68.16464 1308 ft 158 kts 272°
2026-05-04 23:38 -38.94850 -68.17827 2404 ft 153 kts 269°
2026-05-04 23:38 -38.94803 -68.19271 3154 ft 169 kts 269°
2026-05-04 23:38 -38.94850 -68.20846 3943 ft 184 kts 266°
2026-05-04 23:38 -38.94882 -68.22546 4834 ft 193 kts 269°
2026-05-04 23:39 -38.94875 -68.24249 5886 ft 193 kts 270°
2026-05-04 23:39 -38.94865 -68.25976 6913 ft 193 kts 270°
2026-05-04 23:39 -38.94857 -68.27695 7939 ft 192 kts 271°
2026-05-04 23:39 -38.94803 -68.29402 8965 ft 191 kts 280°
2026-05-04 23:40 -38.94131 -68.30860 9931 ft 198 kts 315°
2026-05-04 23:40 -38.92813 -68.31484 10827 ft 215 kts 349°
2026-05-04 23:40 -38.91319 -68.30966 11726 ft 236 kts 22°
2026-05-04 23:40 -38.90089 -68.29490 12644 ft 246 kts 40°
2026-05-04 23:41 -38.88939 -68.27945 13536 ft 239 kts 31°
2026-05-04 23:41 -38.87647 -68.26664 14313 ft 232 kts 23°
2026-05-04 23:41 -38.86329 -68.25471 15066 ft 232 kts 24°
2026-05-04 23:41 -38.85029 -68.24223 15808 ft 234 kts 24°
2026-05-04 23:42 -38.83727 -68.22949 16539 ft 240 kts 24°
2026-05-04 23:42 -38.82349 -68.21622 17381 ft 254 kts 24°
2026-05-04 23:42 -38.80912 -68.20230 18304 ft 263 kts 24°
2026-05-04 23:42 -38.79430 -68.18788 19177 ft 270 kts 24°
2026-05-04 23:43 -38.77920 -68.17324 20078 ft 274 kts 24°
2026-05-04 23:43 -38.76409 -68.15862 20994 ft 278 kts 23°
2026-05-04 23:43 -38.74859 -68.14363 21933 ft 280 kts 22°
2026-05-04 23:43 -38.73303 -68.12858 22876 ft 281 kts 22°
2026-05-04 23:44 -38.71739 -68.11346 23746 ft 281 kts 22°
2026-05-04 23:44 -38.70190 -68.09850 24512 ft 281 kts 21°
2026-05-04 23:44 -38.68630 -68.08344 25270 ft 280 kts 21°
2026-05-04 23:44 -38.67079 -68.06849 26011 ft 278 kts 21°
2026-05-04 23:45 -38.65538 -68.05365 26730 ft 277 kts 21°
2026-05-04 23:45 -38.64002 -68.03887 27434 ft 275 kts 21°
2026-05-04 23:45 -38.62476 -68.02417 28107 ft 274 kts 20°
2026-05-04 23:45 -38.60956 -68.00955 28759 ft 272 kts 20°
2026-05-04 23:46 -38.59447 -67.99504 29381 ft 271 kts 20°
2026-05-04 23:46 -38.57945 -67.98061 29963 ft 270 kts 20°
2026-05-04 23:46 -38.56470 -67.96646 30431 ft 268 kts 20°
2026-05-04 23:46 -38.54954 -67.95201 30722 ft 277 kts 20°
2026-05-04 23:47 -38.53374 -67.93694 31027 ft 286 kts 21°
2026-05-04 23:47 -38.51767 -67.92143 31398 ft 292 kts 21°
2026-05-04 23:47 -38.50140 -67.90569 31807 ft 297 kts 24°
2026-05-04 23:47 -38.48668 -67.88573 32196 ft 322 kts 45°
2026-05-04 23:48 -38.47473 -67.86167 32648 ft 326 kts 48°
2026-05-04 23:48 -38.46264 -67.83720 33118 ft 326 kts 47°
2026-05-04 23:48 -38.45039 -67.81283 33592 ft 327 kts 47°
2026-05-04 23:48 -38.43811 -67.78834 34021 ft 328 kts 47°
2026-05-04 23:49 -38.42589 -67.76383 34411 ft 328 kts 47°
2026-05-04 23:49 -38.41364 -67.73931 34785 ft 328 kts 47°
2026-05-04 23:49 -38.40109 -67.71438 34886 ft 342 kts 47°
2026-05-04 23:49 -38.38791 -67.68827 34907 ft 359 kts 48°
2026-05-04 23:50 -38.37415 -67.66079 34910 ft 376 kts 49°
2026-05-04 23:50 -38.35994 -67.63240 34914 ft 394 kts 49°
2026-05-04 23:50 -38.34488 -67.60242 34917 ft 410 kts 49°
2026-05-04 23:50 -38.32918 -67.57122 34915 ft 426 kts 50°
2026-05-04 23:51 -38.31292 -67.53890 34916 ft 441 kts 50°
2026-05-04 23:51 -38.29613 -67.50556 34912 ft 454 kts 50°
2026-05-04 23:51 -38.27882 -67.47123 34908 ft 466 kts 50°
2026-05-04 23:51 -38.26108 -67.43608 34907 ft 477 kts 51°
2026-05-04 23:52 -38.22448 -67.36370 34904 ft 495 kts 51°
2026-05-04 23:52 -38.18696 -67.28966 34903 ft 508 kts 51°
2026-05-04 23:53 -38.14834 -67.21366 34903 ft 516 kts 51°
2026-05-04 23:53 -38.10922 -67.13683 34900 ft 518 kts 51°
2026-05-04 23:54 -38.07076 -67.06137 34892 ft 502 kts 51°
2026-05-04 23:54 -38.03303 -66.98776 34882 ft 494 kts 51°
2026-05-04 23:55 -37.99574 -66.91500 34888 ft 497 kts 51°
2026-05-04 23:56 -37.93854 -66.80386 34896 ft 507 kts 51°
2026-05-04 23:56 -37.89983 -66.72875 34900 ft 511 kts 51°
2026-05-04 23:57 -37.86081 -66.65329 34898 ft 513 kts 51°
2026-05-04 23:57 -37.82184 -66.57803 34896 ft 512 kts 51°
2026-05-04 23:58 -37.78300 -66.50327 34891 ft 510 kts 51°
2026-05-04 23:58 -37.74403 -66.42837 34891 ft 510 kts 51°
2026-05-04 23:59 -37.70501 -66.35359 34890 ft 509 kts 51°
2026-05-04 23:59 -37.66601 -66.27900 34889 ft 509 kts 51°
2026-05-05 00:00 -37.62729 -66.20511 34893 ft 508 kts 51°
2026-05-05 00:00 -37.58826 -66.13079 34891 ft 508 kts 51°
2026-05-05 00:01 -37.54923 -66.05663 34887 ft 507 kts 51°
2026-05-05 00:01 -37.51017 -65.98259 34885 ft 507 kts 51°
2026-05-05 00:02 -37.47139 -65.90925 34887 ft 506 kts 51°
2026-05-05 00:02 -37.43234 -65.83556 34893 ft 506 kts 51°
2026-05-05 00:03 -37.39329 -65.76201 34892 ft 506 kts 51°
2026-05-05 00:03 -37.35419 -65.68855 34890 ft 505 kts 51°
2026-05-05 00:04 -37.31534 -65.61572 34894 ft 505 kts 51°
2026-05-05 00:04 -37.27622 -65.54254 34894 ft 504 kts 51°
2026-05-05 00:05 -37.23711 -65.46953 34897 ft 504 kts 51°
2026-05-05 00:05 -37.19792 -65.39655 34895 ft 504 kts 51°
2026-05-05 00:06 -37.15875 -65.32373 34898 ft 503 kts 51°
2026-05-05 00:06 -37.11958 -65.25112 34899 ft 503 kts 51°
2026-05-05 00:07 -37.08065 -65.17908 34899 ft 502 kts 51°
2026-05-05 00:07 -37.04146 -65.10670 34896 ft 502 kts 51°
2026-05-05 00:08 -37.00233 -65.03462 34896 ft 501 kts 51°
2026-05-05 00:08 -36.96306 -64.96240 34897 ft 501 kts 51°
2026-05-05 00:09 -36.92412 -64.89097 34898 ft 500 kts 51°
2026-05-05 00:09 -36.88493 -64.81921 34895 ft 500 kts 50°
2026-05-05 00:10 -36.84570 -64.74756 34893 ft 499 kts 50°
2026-05-05 00:10 -36.80652 -64.67613 34900 ft 499 kts 50°
2026-05-05 00:11 -36.76737 -64.60489 34896 ft 498 kts 50°
2026-05-05 00:11 -36.72837 -64.53413 34897 ft 498 kts 50°
2026-05-05 00:12 -36.68911 -64.46298 34894 ft 497 kts 50°
2026-05-05 00:12 -36.64987 -64.39206 34891 ft 497 kts 50°
2026-05-05 00:13 -36.61061 -64.32124 34899 ft 497 kts 50°
2026-05-05 00:13 -36.57290 -64.24978 34893 ft 500 kts 56°
2026-05-05 00:14 -36.53892 -64.17424 34896 ft 500 kts 56°
2026-05-05 00:14 -36.50427 -64.09905 34892 ft 501 kts 56°
2026-05-05 00:15 -36.46982 -64.02360 34901 ft 502 kts 56°
2026-05-05 00:15 -36.43537 -63.94875 34894 ft 503 kts 56°
2026-05-05 00:16 -36.40068 -63.87338 34896 ft 503 kts 56°
2026-05-05 00:16 -36.36591 -63.79803 34896 ft 503 kts 56°
2026-05-05 00:17 -36.33104 -63.72265 34894 ft 504 kts 56°
2026-05-05 00:17 -36.29612 -63.64734 34895 ft 504 kts 56°
2026-05-05 00:18 -36.26135 -63.57251 34895 ft 504 kts 56°
2026-05-05 00:18 -36.22630 -63.49725 34894 ft 505 kts 56°
2026-05-05 00:19 -36.19119 -63.42202 34896 ft 505 kts 56°
2026-05-05 00:19 -36.15598 -63.34675 34899 ft 505 kts 56°
2026-05-05 00:20 -36.12094 -63.27202 34898 ft 505 kts 55°
2026-05-05 00:20 -36.08560 -63.19680 34897 ft 506 kts 55°
2026-05-05 00:21 -36.05026 -63.12174 34895 ft 506 kts 55°
2026-05-05 00:21 -36.01481 -63.04664 34896 ft 506 kts 55°
2026-05-05 00:22 -35.97930 -62.97156 34895 ft 506 kts 55°
2026-05-05 00:22 -35.94400 -62.89712 34898 ft 506 kts 55°
2026-05-05 00:23 -35.90840 -62.82217 34901 ft 506 kts 55°
2026-05-05 00:23 -35.87277 -62.74734 34901 ft 506 kts 55°
2026-05-05 00:24 -35.83707 -62.67253 34904 ft 506 kts 55°
2026-05-05 00:24 -35.80150 -62.59816 34901 ft 507 kts 55°
2026-05-05 00:25 -35.76571 -62.52348 34904 ft 507 kts 55°
2026-05-05 00:25 -35.72985 -62.44883 34904 ft 507 kts 55°
2026-05-05 00:26 -35.69407 -62.37451 34906 ft 507 kts 55°
2026-05-05 00:26 -35.65806 -62.29987 34904 ft 507 kts 55°
2026-05-05 00:27 -35.62203 -62.22534 34915 ft 507 kts 55°
2026-05-05 00:27 -35.58596 -62.15090 34909 ft 507 kts 54°
2026-05-05 00:28 -35.55008 -62.07701 34910 ft 507 kts 54°
2026-05-05 00:28 -35.51385 -62.00257 34908 ft 507 kts 54°
2026-05-05 00:29 -35.47760 -61.92824 34913 ft 507 kts 54°
2026-05-05 00:29 -35.44133 -61.85403 34910 ft 508 kts 54°
2026-05-05 00:30 -35.41110 -61.79231 34910 ft 508 kts 54°
2026-05-05 00:30 -35.38198 -61.71313 34915 ft 515 kts 72°
2026-05-05 00:31 -35.36844 -61.62669 34916 ft 517 kts 79°
2026-05-05 00:31 -35.35432 -61.54038 34919 ft 517 kts 75°
2026-05-05 00:32 -35.34014 -61.45467 34918 ft 517 kts 78°
2026-05-05 00:32 -35.32619 -61.36822 34921 ft 517 kts 76°
2026-05-05 00:33 -35.31174 -61.28200 34922 ft 517 kts 77°
2026-05-05 00:33 -35.29762 -61.19569 34925 ft 517 kts 77°
2026-05-05 00:34 -35.28312 -61.10942 34921 ft 517 kts 77°
2026-05-05 00:34 -35.26888 -61.02378 34924 ft 517 kts 77°
2026-05-05 00:35 -35.25433 -60.93753 34925 ft 517 kts 77°
2026-05-05 00:35 -35.23982 -60.85133 34922 ft 517 kts 77°
2026-05-05 00:36 -35.22518 -60.76517 34923 ft 517 kts 77°
2026-05-05 00:36 -35.21064 -60.67969 34919 ft 517 kts 77°
2026-05-05 00:37 -35.19588 -60.59354 34921 ft 518 kts 77°
2026-05-05 00:37 -35.18107 -60.50734 34922 ft 518 kts 77°
2026-05-05 00:38 -35.16621 -60.42124 34919 ft 518 kts 77°
2026-05-05 00:38 -35.15138 -60.33573 34921 ft 518 kts 77°
2026-05-05 00:39 -35.13647 -60.24999 34392 ft 505 kts 77°
2026-05-05 00:39 -35.12927 -60.20873 33812 ft 489 kts 77°
2026-05-05 00:39 -35.12227 -60.16877 33226 ft 473 kts 76°
2026-05-05 00:39 -35.11557 -60.13059 33198 ft 447 kts 76°
2026-05-05 00:40 -35.10925 -60.09452 33197 ft 424 kts 76°
2026-05-05 00:40 -35.10327 -60.06054 33191 ft 406 kts 76°
2026-05-05 00:40 -35.09736 -60.02709 32621 ft 406 kts 76°
2026-05-05 00:40 -35.09136 -59.99325 31938 ft 410 kts 76°
2026-05-05 00:41 -35.08534 -59.95918 31333 ft 411 kts 76°
2026-05-05 00:41 -35.07932 -59.92513 30765 ft 411 kts 76°
2026-05-05 00:41 -35.07327 -59.89106 30219 ft 410 kts 76°
2026-05-05 00:41 -35.06724 -59.85717 29643 ft 408 kts 76°
2026-05-05 00:42 -35.06122 -59.82334 29027 ft 407 kts 76°
2026-05-05 00:42 -35.05637 -59.79613 28387 ft 409 kts 76°
2026-05-05 00:42 -35.05038 -59.76265 27625 ft 413 kts 76°
2026-05-05 00:42 -35.04426 -59.72849 26888 ft 413 kts 76°
2026-05-05 00:43 -35.03813 -59.69420 26181 ft 412 kts 76°
2026-05-05 00:43 -35.03201 -59.66013 25497 ft 411 kts 76°
2026-05-05 00:43 -35.02589 -59.62611 24840 ft 409 kts 76°
2026-05-05 00:43 -35.01981 -59.59235 24206 ft 407 kts 76°
2026-05-05 00:44 -35.01376 -59.55873 23592 ft 404 kts 76°
2026-05-05 00:44 -35.00775 -59.52541 22896 ft 402 kts 76°
2026-05-05 00:44 -35.00183 -59.49267 22205 ft 398 kts 76°
2026-05-05 00:44 -34.99589 -59.45984 21537 ft 395 kts 76°
2026-05-05 00:45 -34.98998 -59.42726 20889 ft 391 kts 76°
2026-05-05 00:45 -34.98413 -59.39504 20260 ft 388 kts 76°
2026-05-05 00:45 -34.97832 -59.36311 19654 ft 384 kts 76°
2026-05-05 00:45 -34.97257 -59.33154 19060 ft 380 kts 76°
2026-05-05 00:46 -34.96686 -59.30026 18487 ft 376 kts 77°
2026-05-05 00:46 -34.96120 -59.26928 17879 ft 372 kts 77°
2026-05-05 00:46 -34.95559 -59.23864 17245 ft 369 kts 77°
2026-05-05 00:46 -34.95009 -59.20866 16633 ft 365 kts 77°
2026-05-05 00:47 -34.94456 -59.17853 15974 ft 364 kts 77°
2026-05-05 00:47 -34.93907 -59.14869 15329 ft 358 kts 78°
2026-05-05 00:47 -34.93367 -59.11936 14705 ft 352 kts 78°
2026-05-05 00:47 -34.92835 -59.09049 14095 ft 347 kts 78°
2026-05-05 00:48 -34.92308 -59.06197 13480 ft 342 kts 78°
2026-05-05 00:48 -34.91779 -59.03388 12821 ft 338 kts 76°
2026-05-05 00:48 -34.90948 -59.00736 12169 ft 333 kts 62°
2026-05-05 00:48 -34.89675 -58.98414 11534 ft 327 kts 47°
2026-05-05 00:49 -34.88304 -58.96791 11012 ft 319 kts 35°
2026-05-05 00:49 -34.86475 -58.95383 10417 ft 310 kts 21°
2026-05-05 00:49 -34.84492 -58.94339 9836 ft 304 kts 18°
2026-05-05 00:49 -34.82559 -58.93332 9229 ft 300 kts 19°
2026-05-05 00:50 -34.80699 -58.92305 8640 ft 295 kts 21°
2026-05-05 00:50 -34.79166 -58.91454 8162 ft 291 kts 21°
2026-05-05 00:50 -34.77335 -58.90457 7596 ft 286 kts 21°
2026-05-05 00:50 -34.75541 -58.89486 7044 ft 280 kts 21°
2026-05-05 00:51 -34.73770 -58.88526 6501 ft 275 kts 21°
2026-05-05 00:51 -34.72045 -58.87589 5946 ft 270 kts 22°
2026-05-05 00:51 -34.70338 -58.86663 5379 ft 265 kts 21°
2026-05-05 00:51 -34.68662 -58.85755 4837 ft 261 kts 21°
2026-05-05 00:52 -34.67016 -58.84863 4278 ft 257 kts 21°
2026-05-05 00:52 -34.65393 -58.83985 3728 ft 254 kts 21°
2026-05-05 00:52 -34.63793 -58.83119 3191 ft 250 kts 21°
2026-05-05 00:52 -34.62213 -58.82264 2656 ft 247 kts 22°
2026-05-05 00:53 -34.60666 -58.81427 2301 ft 238 kts 22°
2026-05-05 00:53 -34.59266 -58.80660 3315 ft 205 kts 21°
2026-05-05 00:53 -34.58004 -58.79968 4105 ft 197 kts 20°
2026-05-05 00:53 -34.56713 -58.79294 4518 ft 208 kts 19°
2026-05-05 00:54 -34.55278 -58.78867 4828 ft 219 kts
2026-05-05 00:54 -34.53739 -58.78723 4905 ft 241 kts
2026-05-05 00:54 -34.51964 -58.78559 4909 ft 262 kts
2026-05-05 00:54 -34.50085 -58.78331 4944 ft 279 kts
2026-05-05 00:55 -34.48106 -58.78082 4939 ft 292 kts
2026-05-05 00:55 -34.46076 -58.77570 4942 ft 305 kts 16°
2026-05-05 00:55 -34.44141 -58.76438 4941 ft 316 kts 30°
2026-05-05 00:55 -34.42427 -58.74730 4945 ft 324 kts 43°
2026-05-05 00:56 -34.40783 -58.72845 4942 ft 326 kts 35°
2026-05-05 00:56 -34.38840 -58.71455 4946 ft 318 kts 21°
2026-05-05 00:56 -34.36864 -58.70722 4937 ft 279 kts
2026-05-05 00:56 -34.35048 -58.70651 4919 ft 246 kts 351°
2026-05-05 00:57 -34.33515 -58.71159 4918 ft 220 kts 333°
2026-05-05 00:57 -34.32317 -58.72133 4917 ft 199 kts 317°
2026-05-05 00:57 -34.31339 -58.73228 4917 ft 185 kts 315°
2026-05-05 00:57 -34.30438 -58.74266 4913 ft 173 kts 315°
2026-05-05 00:58 -34.29582 -58.75256 4912 ft 170 kts 315°
2026-05-05 00:58 -34.28724 -58.76252 4914 ft 172 kts 315°
2026-05-05 00:58 -34.27854 -58.77263 4914 ft 174 kts 315°
2026-05-05 00:58 -34.27036 -58.78348 4911 ft 176 kts 302°
2026-05-05 00:59 -34.26621 -58.79710 4910 ft 178 kts 279°
2026-05-05 00:59 -34.26713 -58.81210 4909 ft 183 kts 257°
2026-05-05 00:59 -34.27315 -58.82574 4911 ft 189 kts 234°
2026-05-05 00:59 -34.28346 -58.83580 4912 ft 195 kts 211°
2026-05-05 01:00 -34.29658 -58.84054 4913 ft 201 kts 189°
2026-05-05 01:00 -34.31060 -58.83907 4915 ft 206 kts 167°
2026-05-05 01:00 -34.32350 -58.83147 4916 ft 209 kts 144°
2026-05-05 01:00 -34.33350 -58.81862 4913 ft 211 kts 122°
2026-05-05 01:01 -34.33923 -58.80238 4919 ft 210 kts 105°
2026-05-05 01:01 -34.34563 -58.78697 5004 ft 206 kts 127°
2026-05-05 01:01 -34.35527 -58.77328 4696 ft 224 kts 130°
2026-05-05 01:01 -34.36336 -58.76017 4414 ft 237 kts 124°
2026-05-05 01:02 -34.37245 -58.74292 4109 ft 248 kts 121°
2026-05-05 01:02 -34.38174 -58.72498 3824 ft 255 kts 122°
2026-05-05 01:02 -34.39146 -58.70679 3560 ft 259 kts 123°
2026-05-05 01:02 -34.40109 -58.68892 3294 ft 248 kts 122°
2026-05-05 01:03 -34.41031 -58.67171 2994 ft 240 kts 122°
2026-05-05 01:03 -34.41912 -58.65519 2689 ft 234 kts 121°
2026-05-05 01:03 -34.42776 -58.63901 2589 ft 220 kts 121°
2026-05-05 01:03 -34.43576 -58.62424 2793 ft 196 kts 125°
2026-05-05 01:04 -34.44460 -58.61270 2982 ft 182 kts 135°
2026-05-05 01:04 -34.46200 -58.59015 3001 ft 186 kts 124°
2026-05-05 01:04 -34.46925 -58.57692 3000 ft 191 kts 122°
2026-05-05 01:05 -34.47662 -58.56351 3004 ft 195 kts 123°
2026-05-05 01:05 -34.48446 -58.54949 2818 ft 210 kts 123°
2026-05-05 01:05 -34.49310 -58.53415 2465 ft 230 kts 123°
2026-05-05 01:05 -34.50261 -58.51784 2042 ft 246 kts 123°
2026-05-05 01:06 -34.51259 -58.50047 1525 ft 248 kts 122°
2026-05-05 01:06 -34.52170 -58.48342 1213 ft 233 kts 120°
2026-05-05 01:06 -34.53027 -58.46758 905 ft 216 kts 122°
2026-05-05 01:06 -34.53810 -58.45365 628 ft 182 kts 123°
2026-05-05 01:07 -34.54465 -58.44196 369 ft 159 kts 122°
2026-05-05 01:07 -34.55063 -58.43116 111 ft 151 kts 123°
2026-05-05 01:07 -34.55623 -58.42113 23 ft 135 kts 123°
2026-05-05 01:07 -34.56016 -58.41408 21 ft 61 kts 124°
2026-05-05 01:08 -34.56183 -58.41107 22 ft 25 kts 126°
2026-05-05 01:08 -34.56249 -58.41117 21 ft 3 kts 213°
2026-05-05 01:08 -34.56279 -58.41141 22 ft 7 kts 214°
2026-05-05 01:08 -34.56283 -58.41144 21 ft 0 kts 214°
2026-05-05 01:09 -34.56293 -58.41153 21 ft 7 kts 217°
2026-05-05 01:09 -34.56345 -58.41194 21 ft 10 kts 164°
2026-05-05 01:09 -34.56393 -58.41121 21 ft 13 kts 124°
2026-05-05 01:10 -34.56411 -58.41052 21 ft 8 kts 27°
2026-05-05 01:10 -34.56390 -58.41022 21 ft 0 kts 150°
2026-05-05 01:10 -34.56403 -58.41032 25 ft 0 kts 216°